Location: Plum Point
(34.9795°N, 89.9548°W)
Time: 16:39:14
(UTC+00:00)

Hubble Space Telescope - Visible Passes

Search period start: 06 October 2024 00:00
Search period end: 16 October 2024 00:00
Orbit: 504 x 508 km, 28.5° (Epoch: 05 October)

Date Brightness Start Highest point End Pass type
(mag) Time Alt. Az. Time Alt. Az. Time Alt. Az.
06 Oct 2.9 11:06:44 10° SW 11:08:22 12° SSW 11:10:01 10° S visible
07 Oct 2.9 10:46:50 11° SSW 10:47:03 11° SSW 10:48:13 10° S visible
15 Oct 3.1 01:13:09 10° SSW 01:14:04 13° S 01:14:04 13° S visible
